TimeEST,TemperatureF,Dew PointF,Humidity,Sea Level PressureIn,VisibilityMPH,Wind Direction,Wind SpeedMPH,Gust SpeedMPH,PrecipitationIn,Events,Conditions,WindDirDegrees,DateUTC
12:35 AM,27.0,24.3,90,29.91,3.0,Calm,Calm,-,N/A,Snow,Light Snow,0,2013-01-07 05:35:00
12:55 AM,26.6,23.9,90,29.91,3.0,Calm,Calm,-,N/A,Snow,Light Snow,0,2013-01-07 05:55:00
1:15 AM,26.4,23.9,90,29.92,4.0,WNW,3.5,-,N/A,Snow,Light Snow,290,2013-01-07 06:15:00
1:35 AM,27.3,24.6,90,29.93,5.0,West,4.6,-,N/A,Snow,Light Snow,280,2013-01-07 06:35:00
1:55 AM,26.8,23.9,89,29.95,7.0,West,5.8,-,N/A,Snow,Light Snow,280,2013-01-07 06:55:00
2:15 AM,26.4,23.2,88,29.97,7.0,West,5.8,-,N/A,,Overcast,280,2013-01-07 07:15:00
2:35 AM,25.9,21.9,85,29.97,7.0,West,3.5,-,N/A,Snow,Light Snow,270,2013-01-07 07:35:00
2:55 AM,24.8,21.2,86,29.98,7.0,WNW,5.8,-,N/A,Snow,Light Snow,290,2013-01-07 07:55:00
3:15 AM,24.1,20.3,85,30.00,7.0,West,8.1,-,N/A,Snow,Light Snow,270,2013-01-07 08:15:00
3:35 AM,23.9,19.9,85,30.01,5.0,NW,8.1,-,N/A,Snow,Light Snow,320,2013-01-07 08:35:00
3:55 AM,23.2,18.0,80,30.03,7.0,NW,8.1,-,N/A,Snow,Light Snow,310,2013-01-07 08:55:00
4:15 AM,21.7,16.9,82,30.04,10.0,NW,4.6,-,N/A,Snow,Light Snow,310,2013-01-07 09:15:00
4:35 AM,20.8,15.1,78,30.06,10.0,NNW,8.1,-,N/A,,Overcast,340,2013-01-07 09:35:00
4:55 AM,19.9,14.5,80,30.08,10.0,North,9.2,-,N/A,Snow,Light Snow,350,2013-01-07 09:55:00
5:15 AM,19.0,13.8,80,30.10,10.0,North,10.4,-,N/A,,Overcast,350,2013-01-07 10:15:00
5:35 AM,18.3,13.1,80,30.11,10.0,NNW,8.1,-,N/A,,Overcast,340,2013-01-07 10:35:00
5:55 AM,17.8,12.6,80,30.12,10.0,NNW,5.8,-,N/A,Snow,Light Snow,340,2013-01-07 10:55:00
6:15 AM,16.9,11.8,81,30.13,10.0,North,4.6,-,N/A,,Overcast,350,2013-01-07 11:15:00
6:35 AM,16.0,10.9,81,30.15,10.0,North,3.5,-,N/A,,Mostly Cloudy,350,2013-01-07 11:35:00
6:55 AM,14.9,10.2,82,30.16,10.0,NNE,3.5,-,N/A,,Mostly Cloudy,20,2013-01-07 11:55:00
7:15 AM,14.7,9.9,81,30.18,7.0,North,4.6,-,N/A,Snow,Light Snow,360,2013-01-07 12:15:00
7:35 AM,14.7,9.9,81,30.19,5.0,Calm,Calm,-,N/A,Snow,Light Snow,0,2013-01-07 12:35:00
7:55 AM,14.5,9.3,80,30.21,4.0,Calm,Calm,-,N/A,Snow,Light Snow,0,2013-01-07 12:55:00
8:15 AM,14.0,9.3,82,30.23,2.5,NNE,3.5,-,N/A,Snow,Light Snow,20,2013-01-07 13:15:00
8:35 AM,14.0,9.0,80,30.24,3.0,North,5.8,-,N/A,Snow,Light Snow,10,2013-01-07 13:35:00
8:55 AM,14.0,8.4,78,30.26,3.0,North,4.6,-,N/A,Snow,Light Snow,360,2013-01-07 13:55:00
9:35 AM,14.9,7.5,73,30.28,4.0,North,4.6,-,N/A,Snow,Light Snow,350,2013-01-07 14:35:00
10:15 AM,16.2,6.8,67,30.29,10.0,NNW,6.9,-,N/A,,Clear,330,2013-01-07 15:15:00
10:35 AM,15.6,6.6,68,30.29,10.0,NNW,6.9,-,N/A,,Clear,330,2013-01-07 15:35:00
10:55 AM,17.1,7.3,66,30.29,10.0,NW,6.9,-,N/A,,Mostly Cloudy,320,2013-01-07 15:55:00
11:15 AM,18.3,7.5,63,30.29,10.0,WNW,10.4,-,N/A,,Mostly Cloudy,300,2013-01-07 16:15:00
11:35 AM,17.6,7.3,64,30.28,10.0,NW,5.8,-,N/A,,Scattered Clouds,310,2013-01-07 16:35:00
11:55 AM,17.4,7.5,65,30.28,10.0,WNW,6.9,-,N/A,,Scattered Clouds,300,2013-01-07 16:55:00
12:35 PM,19.2,8.1,62,30.29,10.0,WSW,5.8,-,N/A,,Mostly Cloudy,250,2013-01-07 17:35:00
12:55 PM,19.4,7.5,60,30.28,10.0,WSW,5.8,-,N/A,,Clear,240,2013-01-07 17:55:00
1:15 PM,19.6,7.7,60,30.28,10.0,West,3.5,-,N/A,,Scattered Clouds,280,2013-01-07 18:15:00
1:35 PM,20.1,7.2,57,30.28,10.0,West,5.8,-,N/A,,Scattered Clouds,270,2013-01-07 18:35:00
1:55 PM,20.1,7.5,58,30.30,10.0,West,6.9,-,N/A,,Scattered Clouds,270,2013-01-07 18:55:00
2:15 PM,20.3,6.8,56,30.28,10.0,West,3.5,-,N/A,,Clear,260,2013-01-07 19:15:00
2:35 PM,20.1,7.7,59,30.30,10.0,WSW,3.5,-,N/A,,Clear,240,2013-01-07 19:35:00
2:55 PM,20.3,7.3,57,30.30,10.0,West,3.5,-,N/A,,Clear,260,2013-01-07 19:55:00
3:15 PM,20.1,6.8,56,30.30,10.0,SW,3.5,-,N/A,,Clear,230,2013-01-07 20:15:00
3:35 PM,19.4,5.9,56,30.31,10.0,WSW,3.5,-,N/A,,Clear,250,2013-01-07 20:35:00
3:55 PM,20.1,5.9,54,30.31,10.0,Calm,Calm,-,N/A,,Clear,0,2013-01-07 20:55:00
4:15 PM,19.9,5.9,55,30.31,10.0,Calm,Calm,-,N/A,,Clear,0,2013-01-07 21:15:00
4:35 PM,19.4,5.9,56,30.31,10.0,Calm,Calm,-,N/A,,Clear,0,2013-01-07 21:35:00
4:55 PM,16.9,6.3,63,30.32,10.0,Calm,Calm,-,N/A,,Clear,0,2013-01-07 21:55:00
5:15 PM,16.3,5.9,64,30.31,10.0,Calm,Calm,-,N/A,,Clear,0,2013-01-07 22:15:00
5:35 PM,15.4,6.6,68,30.30,10.0,SE,3.5,-,N/A,,Clear,130,2013-01-07 22:35:00
5:55 PM,15.8,6.8,68,30.31,10.0,Calm,Calm,-,N/A,,Clear,0,2013-01-07 22:55:00
6:15 PM,14.4,7.5,74,30.31,10.0,Calm,Calm,-,N/A,,Clear,0,2013-01-07 23:15:00
6:35 PM,15.1,7.0,70,30.31,10.0,Calm,Calm,-,N/A,,Clear,0,2013-01-07 23:35:00
6:55 PM,14.7,7.2,72,30.29,10.0,Calm,Calm,-,N/A,,Clear,0,2013-01-07 23:55:00
7:15 PM,11.8,5.7,76,30.29,10.0,Calm,Calm,-,N/A,,Clear,0,2013-01-08 00:15:00
7:35 PM,11.8,6.4,79,30.28,10.0,Calm,Calm,-,N/A,,Clear,0,2013-01-08 00:35:00
7:55 PM,10.4,6.6,85,30.27,10.0,Calm,Calm,-,N/A,,Clear,0,2013-01-08 00:55:00
8:15 PM,9.3,5.4,84,30.26,10.0,Calm,Calm,-,N/A,,Clear,0,2013-01-08 01:15:00
8:35 PM,9.5,5.7,85,30.25,10.0,Calm,Calm,-,N/A,,Clear,0,2013-01-08 01:35:00
8:55 PM,9.5,5.7,85,30.25,10.0,Calm,Calm,-,N/A,,Clear,0,2013-01-08 01:55:00
9:15 PM,7.7,3.9,85,30.25,10.0,Calm,Calm,-,N/A,,Clear,0,2013-01-08 02:15:00
9:35 PM,8.4,4.5,84,30.24,10.0,Calm,Calm,-,N/A,,Clear,0,2013-01-08 02:35:00
9:55 PM,7.5,3.0,82,30.24,10.0,Calm,Calm,-,N/A,,Clear,0,2013-01-08 02:55:00
10:15 PM,7.2,3.0,83,30.24,10.0,Calm,Calm,-,N/A,,Clear,0,2013-01-08 03:15:00
10:35 PM,7.2,3.0,83,30.24,10.0,Calm,Calm,-,N/A,,Clear,0,2013-01-08 03:35:00
10:55 PM,7.0,2.3,81,30.24,10.0,Calm,Calm,-,N/A,,Clear,0,2013-01-08 03:55:00
11:15 PM,7.7,3.6,83,30.23,10.0,SW,4.6,-,N/A,,Clear,230,2013-01-08 04:15:00
11:35 PM,9.1,5.0,83,30.22,10.0,SW,6.9,-,N/A,,Clear,230,2013-01-08 04:35:00
11:55 PM,8.6,4.1,82,30.21,10.0,Calm,Calm,-,N/A,,Clear,0,2013-01-08 04:55:00